Wind_Speed
15 15 15 14 14 14 15 15 15 15 15 15 15 15 15 15 14 14 14 14 13 13 14 14 14 14 15 15 15 14 14 13 12 11 11 10 11 11 12 12 11 10 7 5 4 4 6 7 8 8 8 7 6 5 4 3 3 3 4 5 6 6 5 4 4 4 4 4 4
16 16 16 16 15 15 15 15 16 16 16 16 16 16 16 16 15 15 15 14 14 14 14 14 14 14 15 15 15 14 14 13 12 11 11 10 11 11 12 12 12 11 9 6 5 5 6 8 9 9 8 8 7 6 5 5 4 4 4 5 6 6 6 4 4 4 4 4 5
16 16 17 17 16 16 16 16 16 16 16 17 16 16 16 16 16 16 15 15 15 14 15 15 15 15 15 15 15 15 14 13 12 11 10 10 11 11 12 12 12 11 10 7 6 6 7 9 10 9 9 9 9 8 7 6 6 5 5 5 5 6 5 5 5 5 5 5 5
14 15 16 16 17 16 16 16 16 17 17 17 17 17 17 17 16 16 16 16 16 16 16 16 15 15 16 16 15 15 14 13 12 11 10 10 11 11 12 12 12 11 10 8 6 6 8 9 11 11 10 10 10 10 9 8 7 6 6 6 6 5 5 5 5 5 5 5 6
13 14 14 15 16 16 16 17 17 17 18 18 18 18 18 17 17 17 17 16 16 16 16 16 16 16 16 16 15 15 14 13 12 11 10 10 10 11 12 12 12 12 10 8 7 7 8 9 11 12 12 12 12 12 11 10 9 7 7 7 7 6 5 5 5 5 5 5 6
12 12 13 13 14 15 16 17 17 18 18 18 19 19 18 18 18 17 17 17 16 16 15 15 15 16 16 15 15 14 13 12 12 11 10 10 11 11 12 12 12 11 10 8 7 7 8 9 11 12 13 14 13 13 12 12 10 9 8 8 8 7 7 6 6 5 4 4 5
12 12 12 12 13 14 16 17 17 18 18 19 18 18 18 18 18 17 17 16 15 15 15 15 15 15 15 14 14 13 12 12 11 11 10 11 11 12 12 12 12 12 11 9 8 8 8 9 11 12 13 14 14 13 13 13 11 10 9 9 9 8 7 7 7 6 5 4 4
13 12 12 12 12 13 15 16 18 18 19 19 18 18 18 17 17 17 16 15 15 14 14 14 14 14 14 14 13 13 12 12 12 12 11 11 11 12 12 12 12 12 11 10 8 8 8 9 11 12 13 14 14 14 13 13 12 11 10 10 9 9 8 8 8 7 5 4 5
14 13 12 12 12 12 13 15 17 18 19 19 19 18 17 17 17 17 16 15 14 13 13 13 13 13 13 13 13 13 13 14 14 13 12 11 11 12 12 12 13 12 11 10 8 8 8 10 11 12 13 14 14 14 14 13 12 11 10 10 10 9 9 8 8 6 5 4 4
14 14 13 12 12 12 13 14 16 18 19 19 19 18 17 17 17 16 16 15 14 13 13 13 13 13 13 13 13 14 14 14 14 14 12 12 12 12 13 13 12 11 10 9 8 8 8 9 11 12 13 13 13 13 13 12 10 9 9 10 10 9 8 8 7 6 4 3 3
15 14 14 13 13 13 14 14 15 16 17 18 18 18 17 17 17 16 15 14 14 13 13 13 13 13 13 14 14 14 14 15 15 14 13 12 12 12 13 12 11 9 7 8 8 9 9 9 10 10 11 12 12 11 10 8 7 7 7 8 8 7 7 6 5 4 3 2 3
15 15 14 14 14 14 15 15 15 15 15 15 15 16 16 16 16 15 15 15 15 14 13 13 13 14 14 14 14 14 15 15 15 15 14 13 13 12 12 11 9 7 6 7 9 10 10 9 9 9 9 10 10 8 6 6 5 6 6 6 6 6 5 5 4 3 2 2 3
16 16 15 15 15 15 16 16 15 15 14 13 13 14 15 15 15 15 15 15 15 14 14 14 14 14 15 15 15 15 16 16 16 16 15 14 13 12 11 10 9 8 7 7 9 10 11 11 10 9 8 8 7 6 5 5 6 6 6 6 6 5 5 4 3 3 3 3 4
16 16 16 16 16 16 16 17 17 16 15 14 13 13 14 14 15 15 16 16 16 15 14 15 15 15 15 15 15 16 16 17 17 17 16 15 13 12 11 11 10 9 8 8 9 10 11 12 11 9 8 8 8 7 6 6 7 7 7 7 7 6 5 5 4 4 4 3 5
18 17 17 17 17 17 18 18 18 17 17 15 14 13 14 15 15 16 16 17 16 16 15 15 15 15 15 16 16 17 17 17 18 18 17 16 14 13 12 11 11 10 10 10 10 11 12 12 11 10 9 9 9 8 8 8 9 9 8 8 7 6 5 5 4 4 4 4 6
19 19 18 18 18 19 19 19 19 18 18 17 15 14 14 15 16 17 17 17 17 16 16 16 16 16 16 16 17 17 18 18 18 18 17 16 15 14 13 12 11 11 10 11 11 12 12 12 12 11 10 9 10 10 10 10 10 10 9 8 7 6 5 5 5 4 4 5 7
20 20 20 20 20 20 20 20 19 19 18 17 15 14 14 15 16 17 18 18 17 17 16 16 16 16 16 17 17 18 18 19 19 19 18 17 16 14 13 11 11 10 11 11 12 13 13 13 12 11 11 10 10 10 10 10 10 10 9 8 7 7 6 6 5 5 5 6 8
22 22 22 22 22 22 21 21 20 19 18 17 16 15 15 15 16 17 18 18 18 17 17 17 17 17 18 18 18 18 19 19 19 19 18 17 16 14 13 12 12 12 12 12 13 13 13 13 13 12 11 10 10 11 11 10 10 9 9 8 8 7 7 6 6 5 6 7 9
23 23 23 24 23 23 22 21 20 19 18 17 16 15 15 16 16 17 18 18 18 18 18 18 19 19 19 19 19 18 18 19 19 19 18 17 15 14 14 13 13 13 14 14 14 14 13 13 14 13 12 11 11 11 12 11 10 9 9 8 8 8 7 7 6 6 7 8 9
25 25 25 24 24 23 22 21 20 19 18 18 17 16 16 16 16 18 19 19 19 19 19 20 20 20 20 19 19 18 18 18 19 18 18 16 15 15 15 14 14 14 15 14 14 14 14 14 14 14 13 12 12 12 12 12 10 9 9 9 8 8 7 7 7 7 8 9 9
26 25 25 24 24 23 23 22 20 19 19 18 18 17 16 16 16 18 18 19 19 19 20 20 20 20 20 19 19 19 18 18 18 18 18 17 16 15 15 14 14 14 14 14 13 13 14 14 14 14 13 12 12 13 13 12 11 10 9 9 9 8 7 7 7 8 8 9 9
26 26 25 24 24 24 23 22 21 21 20 19 19 18 17 16 16 17 18 18 19 20 20 20 20 20 20 19 19 19 19 19 19 19 18 17 16 15 15 14 14 14 14 13 13 13 14 14 15 15 14 13 13 13 12 11 10 10 9 9 9 8 7 7 8 9 9 9 9
27 26 25 24 24 23 23 23 23 22 21 21 20 20 19 18 17 17 17 18 19 19 20 20 20 20 19 19 19 19 19 20 20 19 18 17 16 16 15 15 15 15 15 15 15 15 15 15 15 15 14 14 13 13 12 11 10 9 9 9 9 8 7 8 9 9 9 9 10
27 26 25 24 24 23 23 23 23 23 23 22 22 21 20 19 18 17 17 17 18 19 19 19 19 19 19 19 19 19 20 20 20 19 18 18 17 16 16 16 16 17 17 17 16 16 16 16 15 14 13 13 13 12 11 10 10 10 10 10 9 8 8 9 10 10 10 10 10
27 27 26 25 24 24 23 23 23 24 23 23 22 22 21 21 20 19 18 18 18 18 18 19 19 19 19 19 19 19 19 19 19 19 18 18 17 17 17 17 18 18 18 17 16 15 15 14 14 13 12 11 11 10 9 9 9 10 10 10 9 9 9 10 10 10 10 10 11
27 27 27 26 25 25 24 24 23 23 23 23 23 23 23 22 22 21 20 20 19 19 18 18 18 19 19 19 19 19 19 19 19 19 18 18 18 17 18 18 19 19 18 17 16 15 14 13 13 13 13 12 11 9 8 8 8 8 9 9 9 10 11 11 11 11 11 11 11
27 27 27 27 26 26 25 24 23 23 23 23 23 23 23 23 22 22 22 22 21 20 19 19 19 19 19 19 19 19 19 19 19 19 18 18 18 18 18 18 19 19 18 17 15 14 13 13 14 14 14 15 14 13 11 10 9 8 9 9 10 11 12 12 12 12 11 11 11
27 27 27 27 27 27 26 25 24 24 23 23 23 23 23 23 23 23 23 23 22 21 20 20 20 19 19 20 20 20 20 20 19 19 18 18 19 19 19 19 19 19 18 16 14 13 13 14 14 15 15 16 17 16 15 13 12 10 10 11 11 12 13 13 13 12 12 11 12
27 27 27 27 27 28 27 27 26 25 24 24 23 23 23 23 23 24 24 24 24 23 22 21 20 20 20 20 21 21 20 20 20 19 19 19 19 19 19 19 19 18 16 14 13 13 13 14 14 15 15 16 18 18 17 16 15 13 13 13 13 13 13 13 12 12 12 12 12
27 27 27 27 27 28 28 28 28 27 25 24 24 23 23 23 24 24 25 25 25 25 23 22 21 21 21 21 21 21 21 20 20 19 19 19 19 19 19 19 18 16 14 13 12 13 14 14 15 15 15 16 17 18 19 18 17 16 15 15 14 14 14 13 13 12 12 12 12
26 26 26 27 27 28 28 28 28 27 26 25 25 25 24 25 25 25 26 26 26 25 24 23 22 22 23 22 22 22 21 21 20 19 19 20 20 19 19 18 17 15 13 12 12 13 14 15 15 15 15 16 17 18 19 18 18 17 16 16 16 15 15 14 13 13 12 12 12
26 26 26 27 27 28 28 28 27 27 26 26 26 26 26 26 26 26 26 26 25 25 25 24 24 24 24 23 23 22 22 21 21 20 20 20 20 20 19 18 17 15 13 12 13 14 15 16 16 16 16 16 16 17 18 18 18 17 17 17 17 16 16 15 14 14 13 13 13
25 25 26 26 27 28 28 28 27 27 27 27 27 27 27 27 27 26 26 26 26 26 26 26 26 26 25 25 24 23 22 21 21 20 20 20 20 20 19 19 18 16 14 13 13 14 16 16 16 16 16 16 16 17 18 18 18 18 18 18 18 17 17 16 15 14 14 14 13
24 25 25 26 27 27 27 27 27 27 27 27 27 27 28 27 27 27 27 26 26 26 27 27 27 27 26 25 24 24 23 22 21 21 20 20 20 20 20 19 19 17 15 14 14 15 16 17 17 16 16 16 16 17 18 18 18 18 18 18 18 17 17 16 15 15 15 14 14
23 24 25 25 26 26 26 26 26 26 26 27 27 28 28 28 28 28 28 27 26 26 27 27 27 27 26 25 25 24 23 22 22 21 20 20 20 20 20 21 20 18 16 15 15 15 16 17 17 16 16 16 16 17 17 18 18 18 18 18 17 17 17 16 16 15 15 14 13
23 23 24 25 25 26 26 26 26 26 26 27 28 28 28 29 29 28 28 26 26 26 27 27 27 27 27 27 26 25 24 23 22 21 21 20 20 21 21 21 21 19 17 16 15 16 16 17 17 16 16 16 16 17 18 18 19 19 18 18 18 17 17 17 16 15 14 14 13
23 23 23 24 25 25 25 25 25 26 26 27 28 28 28 29 29 28 27 26 26 27 28 28 28 28 28 28 27 26 24 23 22 22 22 21 21 22 22 22 21 20 18 17 16 16 17 17 17 16 16 16 17 17 18 19 19 19 19 19 19 18 18 17 16 15 14 14 14
22 23 23 23 24 24 24 24 25 26 27 27 28 28 28 28 29 28 28 27 27 27 28 28 29 29 29 28 27 25 24 23 23 23 23 22 22 22 23 23 22 20 19 17 17 17 17 17 17 16 16 16 17 17 18 19 19 20 20 20 19 19 18 17 16 16 15 15 15
22 22 22 23 23 24 24 24 25 26 27 27 27 27 28 28 28 28 27 27 27 27 28 28 29 29 28 27 26 26 25 24 23 23 24 24 23 23 23 23 23 21 19 18 18 17 17 17 17 16 16 16 17 18 18 19 19 20 20 20 20 20 19 18 17 16 16 16 15
22 22 22 23 23 24 24 25 25 26 26 26 26 27 27 28 28 27 27 26 27 27 28 29 29 29 28 27 27 27 26 25 24 24 24 24 24 23 23 23 23 22 20 19 18 18 17 17 17 17 16 16 17 18 18 19 19 20 20 21 20 20 20 19 18 17 17 16 16
21 22 22 23 23 24 24 25 25 25 25 25 26 27 27 27 27 26 26 26 27 27 28 28 29 28 27 27 27 27 27 27 26 25 24 24 24 23 23 24 23 22 21 19 18 18 18 17 17 17 16 16 17 18 18 19 19 20 21 21 21 20 20 20 19 18 17 17 17
Wind_Direction
233 235 237 238 237 233 230 228 228 229 231 234 237 240 242 245 246 249 251 254 255 256 258 259 262 265 268 271 274 277 280 283 286 287 285 282 281 282 283 284 285 285 284 280 260 232 218 213 215 219 223 226 226 228 232 237 244 258 264 263 259 256 257 265 271 273 273 273 270
237 238 240 242 242 240 235 232 231 231 233 234 236 239 242 245 247 249 252 254 257 259 260 262 264 266 268 271 274 277 280 282 284 283 281 278 277 278 280 282 285 286 287 283 267 239 222 217 219 222 227 231 232 233 235 237 236 240 249 255 255 253 254 259 267 271 272 275 278
240 241 241 243 243 242 239 236 235 235 236 237 239 241 243 245 247 249 252 254 257 259 260 261 263 266 269 271 274 277 280 282 282 280 276 272 272 273 276 279 282 286 288 284 271 246 229 222 222 225 230 235 237 238 239 238 235 232 234 244 250 253 256 259 267 271 275 278 283
242 242 243 243 243 243 241 240 239 238 239 240 243 244 246 247 249 250 252 255 257 258 259 261 263 266 269 271 274 277 279 280 279 277 272 268 266 268 271 275 278 282 285 283 272 251 235 228 226 229 233 238 241 242 242 240 237 232 231 238 243 248 253 259 267 276 281 286 290
246 245 245 246 245 244 243 242 241 240 240 242 244 245 247 249 251 253 254 256 256 258 260 262 263 265 268 270 273 276 277 277 276 273 269 264 261 263 266 270 274 278 281 280 270 253 238 232 231 234 238 242 244 246 247 246 242 237 235 238 240 243 248 253 263 273 282 291 300
250 249 248 248 246 245 243 241 240 240 241 242 244 245 247 250 252 254 256 257 258 258 259 260 262 264 266 269 272 274 275 274 272 270 267 263 259 258 260 265 270 274 276 273 263 250 238 233 232 236 241 245 248 251 253 252 248 243 240 238 237 240 244 247 252 258 270 287 307
253 250 249 248 248 246 245 243 242 241 241 242 243 245 247 249 252 255 257 258 258 257 257 258 259 262 264 267 270 272 273 273 271 269 267 263 258 254 255 259 265 270 271 266 255 243 235 231 229 233 241 246 249 253 256 256 253 248 242 237 236 238 242 244 246 249 257 275 301
255 253 251 251 251 251 250 249 247 245 244 243 244 245 247 249 252 254 256 256 256 255 255 256 258 260 263 265 268 270 272 273 273 271 267 262 256 252 251 255 260 266 268 261 249 236 231 229 228 232 238 245 248 253 256 258 255 250 242 233 230 233 238 241 244 247 252 269 293
257 257 257 257 258 259 259 257 254 251 249 247 246 247 249 250 251 252 252 251 251 251 252 253 256 258 261 263 266 268 271 273 273 272 269 262 255 250 248 251 255 261 265 262 249 235 228 227 228 231 237 243 248 252 255 256 253 247 236 228 225 228 234 239 241 244 249 267 291
258 260 262 263 266 268 267 265 260 256 253 251 250 250 250 250 250 248 247 246 246 246 248 251 254 257 260 262 265 268 271 272 272 272 270 265 258 251 246 247 251 257 266 270 260 247 235 230 229 231 237 242 247 252 254 254 252 243 232 223 221 224 230 235 237 240 247 266 291
259 261 263 265 269 272 273 272 267 262 257 254 252 250 249 247 245 243 242 242 242 243 246 250 254 257 260 262 265 268 271 273 274 273 271 267 260 252 247 245 248 255 267 276 273 265 254 244 239 238 241 244 248 253 256 257 253 246 235 225 221 224 230 235 234 237 246 264 284
259 260 261 264 268 272 274 274 273 269 264 258 253 248 245 242 240 239 239 240 240 243 247 251 254 258 261 263 266 269 271 274 275 274 273 269 264 256 250 246 245 247 258 271 274 273 270 266 258 253 252 252 252 254 258 259 255 249 239 228 224 225 228 231 232 236 246 259 268
258 259 260 262 266 269 272 273 275 275 272 265 256 248 242 239 238 237 238 239 240 244 249 252 255 258 262 264 266 269 272 275 276 275 274 272 268 262 254 247 242 239 245 257 266 270 273 274 271 266 263 262 257 251 244 247 249 247 239 228 223 221 219 219 221 228 240 252 263
258 258 258 260 263 266 269 271 273 275 275 272 263 253 244 239 238 238 239 240 243 246 250 253 255 258 261 264 267 269 272 274 275 275 274 272 269 265 258 249 243 239 239 246 254 261 267 271 273 272 268 264 259 247 232 231 239 244 241 232 223 216 213 210 214 222 232 248 265
255 256 257 259 261 263 266 268 271 273 275 273 268 258 249 242 240 240 241 242 245 248 251 253 255 258 260 263 266 269 271 273 275 275 274 272 269 265 259 253 247 242 239 240 245 252 258 264 270 271 270 265 261 252 238 230 233 239 241 235 224 216 213 209 212 217 229 249 268
253 254 256 257 258 260 262 264 267 270 272 273 270 262 253 246 243 242 243 244 246 248 251 253 255 258 259 262 265 268 270 272 274 274 273 270 266 263 259 256 253 249 245 242 243 247 253 259 265 267 267 266 264 259 250 238 234 235 236 230 219 213 210 210 213 220 235 258 271
251 252 253 254 256 258 260 262 264 267 269 271 269 264 256 249 245 244 244 244 246 247 250 252 256 258 259 260 262 265 269 272 273 274 272 268 264 261 260 261 261 261 258 254 249 249 251 257 261 262 262 262 263 264 259 249 238 233 228 218 209 207 208 212 217 230 249 265 271
251 252 253 254 255 257 259 260 262 265 267 269 268 264 257 251 246 244 244 245 246 246 248 251 255 257 257 258 260 263 267 270 272 272 270 267 264 261 260 261 263 264 264 262 258 254 252 254 258 259 257 255 257 262 262 255 242 229 219 210 205 205 208 213 222 239 259 269 271
253 253 253 254 255 257 259 261 262 264 266 268 268 264 258 252 247 244 244 244 246 246 248 250 253 255 257 259 260 262 265 268 270 270 268 265 263 260 258 257 257 258 260 261 259 255 252 253 256 258 255 249 248 253 257 254 241 226 214 207 205 206 211 219 232 251 267 272 271
256 255 255 256 257 259 261 262 264 265 267 268 268 266 260 253 248 246 244 245 247 248 249 251 254 257 260 262 264 264 265 266 267 268 266 264 261 259 257 257 257 257 258 258 256 254 251 251 254 257 255 248 245 247 251 250 238 223 212 207 208 212 219 229 243 259 267 267 269
258 258 259 259 260 261 263 265 267 268 268 268 269 268 264 257 251 248 247 247 249 250 251 254 257 259 262 264 265 266 265 264 265 266 265 263 261 259 259 261 262 262 261 259 257 254 251 250 252 255 255 250 246 247 248 246 236 223 214 212 213 218 225 237 251 262 267 267 268
260 261 262 262 263 264 265 267 268 268 268 268 269 269 267 262 256 252 250 250 251 252 254 257 259 261 263 264 265 265 265 264 263 262 262 261 259 259 260 261 263 264 264 262 260 257 254 252 252 253 252 251 249 249 249 244 234 224 219 219 220 223 230 244 257 263 266 267 265
261 262 263 264 264 265 265 266 267 267 267 267 267 268 268 266 262 258 254 253 253 255 257 259 260 261 262 263 263 265 265 264 263 261 259 257 256 256 257 257 259 260 260 260 259 258 258 257 255 251 248 247 248 250 249 242 233 227 226 227 228 230 238 252 260 263 263 262 262
262 262 263 264 265 265 264 264 264 264 265 265 265 267 268 269 269 265 261 258 257 258 259 260 260 261 261 262 262 264 264 264 263 261 258 254 252 251 252 254 254 255 256 257 258 259 260 261 259 253 245 240 243 246 246 240 233 230 231 233 235 240 247 256 261 262 261 260 260
262 262 263 263 264 264 264 263 263 263 263 264 265 265 267 269 270 269 267 264 263 262 262 262 262 262 262 262 262 263 264 263 261 259 257 255 253 252 251 252 253 255 256 257 258 258 258 258 259 257 251 244 244 246 245 238 232 230 232 235 241 250 257 261 262 261 260 259 260
262 262 262 263 263 264 263 263 263 263 264 264 264 264 264 266 268 269 269 267 267 266 266 265 264 263 263 262 262 262 262 261 260 259 257 256 256 255 255 256 257 258 258 259 258 256 252 248 249 252 256 257 258 258 254 248 239 235 234 238 245 253 260 262 263 262 260 259 261
262 262 263 264 263 263 263 264 264 264 264 263 262 262 262 263 264 266 267 268 268 269 269 267 266 264 263 262 261 260 260 260 260 259 258 258 258 257 257 259 260 261 261 261 259 254 248 243 241 243 250 258 262 262 262 260 256 250 246 246 249 254 258 261 263 264 263 262 264
262 263 263 263 263 263 265 265 265 264 263 262 262 262 262 262 262 262 263 265 267 268 268 267 266 265 263 261 260 260 260 261 260 260 260 260 260 259 259 259 260 262 262 262 258 252 245 241 239 239 243 249 255 258 259 260 261 260 257 255 255 256 257 260 263 264 265 264 265
264 264 263 262 262 264 265 265 265 265 265 264 263 262 261 260 260 260 261 262 262 263 263 264 265 264 262 260 260 261 262 261 262 262 261 261 260 260 258 258 259 260 260 258 253 247 243 241 240 240 240 242 247 252 255 256 257 258 259 259 258 257 257 259 261 262 263 264 266
265 264 262 262 263 264 264 265 266 267 266 265 263 261 259 258 258 258 258 258 258 259 261 263 263 262 261 261 262 262 261 262 262 261 261 260 260 259 257 256 257 257 256 252 247 244 242 241 241 241 240 240 243 248 251 252 254 255 257 258 258 257 256 257 259 261 263 264 266
266 264 263 263 263 264 265 266 267 267 267 265 263 261 259 257 257 257 257 257 258 260 261 262 262 262 262 263 263 262 262 262 261 260 259 258 258 257 256 255 254 253 251 247 243 242 242 242 242 242 241 240 242 245 248 250 252 255 256 258 258 257 257 257 258 259 261 263 265
267 266 264 264 264 265 267 267 267 266 265 264 263 261 259 258 258 258 258 257 258 259 259 259 259 261 262 263 262 262 261 261 260 259 257 256 256 255 254 253 251 249 246 244 242 241 242 242 242 242 242 242 242 244 247 249 251 253 256 258 258 258 257 257 258 259 260 262 264
268 267 266 265 266 267 268 267 266 266 265 263 262 261 260 260 260 259 258 256 256 255 256 257 258 259 261 262 263 263 262 261 260 259 257 256 255 254 253 252 249 247 244 243 242 242 242 243 243 243 243 243 244 245 247 248 249 251 253 255 258 259 259 258 259 260 262 263 264
270 268 267 267 268 268 268 267 266 265 264 263 262 261 261 260 260 259 257 255 254 254 256 258 259 261 262 263 264 264 264 262 261 259 257 255 253 252 251 250 249 247 244 243 243 243 243 243 244 244 244 245 246 247 248 248 248 249 251 253 255 256 257 258 259 260 262 264 264
272 270 269 269 270 270 269 267 266 264 263 262 261 261 261 260 260 259 257 256 254 255 256 259 260 262 263 264 264 263 263 262 260 258 256 254 252 250 249 249 249 247 245 244 244 244 244 244 244 245 245 246 247 248 248 248 247 248 248 250 252 253 255 257 259 261 263 264 263
274 272 271 271 271 271 269 267 265 264 262 261 261 261 261 261 261 260 259 257 255 255 256 258 260 261 262 262 262 262 261 260 259 258 256 253 251 249 248 249 249 248 246 245 245 245 245 244 244 245 246 246 247 248 248 248 247 247 248 249 251 253 255 257 261 264 266 265 263
278 275 273 272 272 271 269 267 265 262 261 261 262 262 262 262 262 262 260 257 254 254 255 258 259 260 261 262 263 263 263 262 261 259 257 254 251 249 248 249 250 249 247 245 245 245 244 244 244 244 246 247 248 248 248 248 248 248 249 250 252 254 256 259 262 265 266 264 262
281 279 277 274 273 271 269 267 264 262 262 263 264 265 265 264 263 262 260 257 254 253 255 257 258 260 262 264 266 266 266 264 262 260 258 255 251 250 249 250 251 250 248 246 246 245 244 243 243 243 245 247 249 249 250 250 250 250 251 251 253 255 257 259 261 263 263 262 261
284 281 279 276 274 272 270 266 264 263 264 265 266 266 266 265 263 262 261 258 256 256 256 258 259 262 264 266 267 267 267 265 262 260 258 256 253 251 250 251 252 251 250 248 247 246 245 243 242 243 244 246 249 250 251 252 252 252 253 253 254 256 257 259 260 262 263 261 260
286 283 280 277 275 273 270 267 266 266 266 266 265 265 265 265 265 264 263 260 258 258 258 259 262 264 265 265 266 267 267 265 262 259 257 255 254 252 251 251 252 252 251 248 248 247 246 244 242 242 244 245 247 249 251 252 253 253 253 253 254 256 257 259 261 262 263 262 259
288 284 281 278 276 274 271 269 269 269 268 267 266 267 268 268 267 265 262 260 258 258 259 260 262 264 264 264 265 266 266 265 263 259 257 255 253 251 250 250 252 252 251 249 248 248 247 245 243 242 242 243 245 247 249 250 252 252 252 253 254 255 257 259 261 262 262 261 258
Height
819 819 819 819 819 819 819 819 819 819 819 819 819 819 818 818 818 818 818 818 818 818 818 817 817 817 817 816 816 816 816 816 815 815 815 815 814 814 813 813 813 813 813 813 812 812 812 812 812 812 812 812 812 812 812 812 812 812 812 812 812 812 812 812 812 812 812 812 812
818 818 818 818 818 818 818 818 818 818 818 818 818 818 818 818 818 818 818 817 817 817 817 817 816 816 816 816 815 815 815 815 815 814 814 814 814 813 813 813 812 812 812 812 812 812 811 811 811 811 811 811 811 811 811 812 812 812 812 812 812 812 812 812 812 812 812 812 812
817 817 817 817 817 817 817 817 817 817 817 817 817 817 817 817 817 817 817 817 816 816 816 816 816 816 815 815 815 814 814 814 814 814 814 813 813 813 812 812 812 812 812 812 812 811 811 811 811 811 811 811 811 811 811 811 811 812 812 811 811 811 811 811 811 811 811 812 812
816 816 816 816 816 816 816 816 816 816 816 816 816 816 816 816 816 816 816 816 816 816 815 815 815 815 815 814 814 814 813 813 813 813 813 813 812 812 812 811 811 811 811 811 811 811 811 811 810 810 810 810 810 810 811 811 811 811 811 811 811 811 811 811 811 811 811 811 811
816 815 815 815 815 815 816 816 816 816 815 815 815 815 815 815 815 815 815 815 815 815 815 814 814 814 814 813 813 813 813 812 812 812 812 812 812 811 811 811 811 810 811 811 811 810 810 810 810 810 809 809 810 810 810 810 810 811 811 811 811 811 811 811 811 811 811 811 811
815 815 815 815 815 814 814 814 814 814 814 814 814 814 814 814 814 814 814 814 814 814 814 814 813 813 813 813 812 812 812 812 811 811 811 811 811 811 811 810 810 810 810 810 810 810 810 809 809 809 809 809 809 809 809 809 810 810 810 810 810 810 810 810 810 810 810 810 810
814 814 814 814 814 814 814 813 813 813 813 813 813 813 813 813 813 813 813 813 813 813 813 813 813 812 812 812 812 811 811 811 811 811 811 810 810 810 810 810 809 809 809 809 809 809 809 809 809 808 808 808 808 808 808 808 809 809 809 809 809 809 809 809 809 809 809 809 810
813 813 813 813 813 813 813 813 813 812 812 812 812 812 812 812 812 812 812 812 812 812 812 812 812 812 811 811 811 811 811 810 810 810 810 810 809 809 809 809 809 808 808 808 808 808 808 808 808 808 808 807 807 807 807 807 808 808 808 808 808 808 808 808 808 808 809 809 809
812 812 812 812 812 812 812 812 812 812 811 811 811 811 811 811 811 811 811 811 811 811 811 811 811 811 811 811 811 810 810 810 809 809 809 809 809 808 808 808 808 808 808 808 808 808 808 807 807 807 807 807 807 806 806 806 806 807 807 807 807 807 807 807 808 808 808 808 808
811 811 811 811 811 811 811 811 811 811 811 810 810 810 810 810 810 810 810 811 811 811 811 811 810 810 810 810 810 810 809 809 808 808 808 808 808 808 808 808 807 807 807 807 807 807 807 807 807 806 806 806 806 806 806 806 806 806 806 806 806 806 806 806 807 807 807 807 808
811 811 811 811 811 810 810 810 810 810 810 809 809 809 809 809 809 809 810 810 810 810 810 810 810 810 810 809 809 809 809 808 808 808 808 808 807 807 807 807 807 807 807 806 806 806 806 806 806 806 806 805 805 805 805 805 805 805 805 805 805 806 806 806 806 806 806 807 807
810 810 810 810 810 809 809 809 809 809 809 809 809 808 808 808 809 809 809 809 809 809 809 809 809 809 809 809 808 808 808 808 807 807 807 807 807 806 806 806 806 806 806 806 806 806 806 806 805 805 805 805 804 804 804 804 804 804 804 804 805 805 805 805 805 806 806 806 806
808 808 808 808 808 808 808 808 808 808 808 808 808 808 808 808 808 808 808 808 808 808 808 808 808 808 808 808 808 808 807 807 807 807 806 806 806 806 806 806 806 805 805 806 805 805 805 805 805 805 804 804 804 804 804 804 804 804 804 804 804 804 804 804 805 805 805 806 806
807 807 807 807 807 807 807 806 806 806 806 807 807 807 807 807 807 807 807 807 807 807 807 807 807 807 807 807 807 807 806 806 806 806 806 805 805 805 805 805 805 805 805 805 805 805 805 804 804 804 804 803 803 803 803 803 803 803 803 803 803 804 804 804 804 805 805 805 805
805 805 806 806 806 806 805 805 805 805 805 805 806 806 806 806 806 806 806 806 806 806 807 807 807 806 806 806 806 806 806 805 805 805 805 804 804 804 804 804 804 804 804 804 804 804 804 804 804 803 803 803 803 803 803 803 803 803 803 803 803 803 803 803 804 804 804 804 804
804 804 804 804 804 804 804 804 804 804 804 804 805 805 805 805 805 805 805 805 806 806 806 806 806 806 806 806 805 805 805 804 804 804 804 804 803 803 803 803 803 803 803 803 803 803 803 803 803 803 803 803 802 802 802 802 802 802 802 802 802 802 803 803 803 803 803 803 803
802 802 802 802 802 802 802 802 803 803 803 803 803 804 804 804 804 804 804 804 805 805 805 805 805 805 805 804 804 804 804 803 803 803 803 803 803 803 803 803 803 803 803 803 803 803 803 802 802 802 802 802 802 802 801 801 801 801 801 801 801 802 802 802 802 802 803 803 803
801 801 801 801 801 801 801 801 801 802 802 802 802 803 803 803 803 803 803 803 803 803 803 803 803 803 803 803 803 803 803 803 802 802 802 802 802 802 802 802 802 802 802 802 802 802 802 802 802 802 801 801 801 801 801 801 801 801 801 801 801 801 801 801 801 802 802 802 802
800 800 800 800 800 800 800 800 800 801 801 801 801 801 801 802 802 802 802 802 802 802 802 802 802 802 802 802 802 802 802 801 801 801 801 801 801 801 801 801 801 801 801 801 801 801 801 801 801 801 801 801 801 801 800 800 800 800 800 800 800 800 800 801 801 801 801 801 801
799 799 799 799 799 799 799 799 799 800 800 800 800 800 800 800 800 800 800 800 800 801 801 801 801 801 801 801 801 801 800 800 800 800 800 800 800 800 800 800 800 800 800 800 800 800 800 800 800 800 800 800 800 800 800 799 799 799 799 799 799 799 799 800 800 800 800 800 800
798 798 798 798 798 798 798 798 799 799 799 799 799 799 799 799 799 799 799 799 799 799 799 799 799 799 799 799 799 799 799 799 799 799 799 799 799 799 799 799 799 799 799 799 799 799 799 799 799 799 799 799 799 799 799 799 798 798 798 798 798 798 799 799 799 799 799 799 799
796 796 797 797 798 798 798 798 798 798 798 798 798 798 797 797 798 798 798 798 798 798 798 798 798 798 798 798 798 798 798 798 798 797 797 798 798 798 798 798 798 798 798 798 798 798 798 798 798 798 798 798 798 798 798 798 798 798 798 798 798 798 798 798 798 798 798 798 798
794 795 795 796 796 797 797 797 797 797 797 797 797 796 796 796 796 797 797 797 797 797 797 797 797 797 797 797 797 797 796 796 796 796 796 796 796 796 797 797 797 797 797 797 797 797 797 797 797 797 797 798 798 797 797 797 797 797 797 797 797 797 797 798 798 798 798 798 797
793 793 793 794 794 795 795 796 796 796 796 795 796 796 795 795 795 795 795 795 795 795 796 796 796 796 796 796 796 795 795 795 795 795 795 795 795 795 795 795 796 796 795 796 796 796 796 796 796 796 796 796 797 797 797 797 796 796 796 796 796 796 797 797 797 797 797 797 796
791 791 792 792 793 793 793 794 794 794 794 794 794 794 794 794 794 794 794 794 794 794 794 794 794 794 794 794 794 794 794 794 794 794 794 794 794 794 794 794 794 794 794 794 794 794 795 795 795 795 795 795 796 796 796 796 796 796 796 796 796 796 796 796 796 796 796 796 796
790 790 790 790 791 791 791 791 792 792 792 793 793 793 793 793 793 793 792 792 792 793 793 793 793 793 793 793 793 793 793 793 793 792 792 792 792 793 793 793 792 792 792 792 793 793 794 794 794 794 794 794 795 795 795 795 795 795 795 795 795 795 795 795 795 795 795 795 795
788 788 788 788 789 789 789 789 790 790 790 791 791 791 791 792 792 791 791 791 791 791 791 791 791 792 792 791 791 791 791 791 791 791 791 791 791 791 791 791 791 791 791 791 791 792 792 793 794 794 794 794 794 794 794 794 794 794 795 795 795 795 794 794 794 794 794 794 794
786 786 787 787 787 787 787 787 788 788 788 788 789 789 790 790 790 790 790 789 789 790 790 790 790 790 790 790 790 790 790 790 790 790 790 790 790 789 789 789 789 789 789 790 790 791 791 792 793 793 793 793 793 792 793 793 793 793 793 794 793 793 793 793 793 793 793 793 793
785 785 785 785 785 785 785 786 786 786 786 786 787 787 788 788 788 788 788 788 788 788 788 788 788 788 788 788 788 788 788 788 788 789 789 788 788 788 788 788 788 788 788 789 789 789 790 791 791 792 792 793 792 791 791 791 792 792 792 792 792 792 792 792 792 792 792 792 792
783 784 784 784 783 783 783 784 784 784 785 785 785 786 786 786 786 786 786 786 786 786 786 786 787 786 786 786 786 787 787 787 787 787 787 787 787 786 786 786 787 787 787 788 788 788 789 790 790 791 791 792 791 791 790 790 790 790 791 791 791 791 791 791 791 791 791 791 790
782 782 782 782 782 782 782 782 782 783 783 784 784 784 784 784 784 784 784 784 784 785 785 785 785 785 784 785 785 785 785 785 785 786 785 785 785 785 785 785 785 786 786 786 787 787 788 788 789 789 790 790 790 790 789 789 789 789 789 789 789 790 790 790 790 790 790 789 789
781 781 781 781 780 780 780 781 781 781 782 782 782 782 782 782 782 782 782 783 783 783 783 783 783 783 783 783 783 783 783 783 783 784 784 784 783 783 784 784 784 784 785 785 786 786 787 787 788 788 788 789 789 788 788 788 788 788 788 788 788 788 788 788 788 788 788 788 788
779 779 779 779 778 778 779 779 779 780 780 780 780 780 780 780 780 780 781 781 781 781 781 781 781 781 781 781 781 781 782 782 782 782 782 782 782 782 782 782 783 783 783 784 784 785 786 786 786 787 787 787 787 787 787 787 786 786 786 786 787 787 787 787 787 787 787 787 787
777 777 777 777 777 777 777 777 778 778 778 778 778 778 778 778 778 778 779 779 779 779 779 779 779 779 779 779 780 780 780 780 780 780 780 781 781 781 781 781 781 781 782 783 783 783 784 785 785 785 786 786 786 786 785 785 785 785 785 785 785 786 786 786 786 786 785 785 785
776 776 776 775 775 775 776 776 776 776 776 776 776 776 776 776 776 776 777 777 778 778 778 777 778 778 778 778 778 778 778 778 778 778 778 779 779 779 779 779 779 780 781 781 782 782 783 783 784 784 784 784 784 784 784 784 784 784 784 784 784 784 784 784 784 784 784 784 784
774 774 774 774 774 774 774 774 774 774 774 774 773 773 774 774 774 774 775 776 776 776 776 776 776 776 776 776 776 776 776 776 776 776 777 777 777 777 777 777 777 778 779 780 780 781 781 782 782 782 783 783 783 782 782 782 782 782 782 782 782 782 782 783 783 783 783 783 783
773 773 772 772 772 772 772 772 773 772 772 772 771 771 772 772 772 773 773 774 774 774 774 774 774 774 773 773 774 774 774 775 775 775 775 775 775 775 775 775 775 776 777 778 778 779 779 780 780 781 781 781 781 781 781 781 781 781 781 781 781 781 781 781 781 781 781 782 782
771 771 771 771 770 770 771 771 771 770 770 769 769 770 770 770 770 771 771 772 772 772 772 772 772 771 771 772 772 772 773 773 773 773 773 773 773 773 773 773 773 774 775 776 777 777 777 778 778 779 779 779 779 779 779 779 779 779 779 779 779 779 779 779 780 780 780 780 781
769 769 769 769 769 769 769 769 769 768 768 768 768 768 768 768 768 769 769 770 770 770 770 770 769 769 770 770 771 771 771 771 771 771 771 771 771 772 772 772 772 772 773 774 775 775 775 776 776 777 777 778 778 778 778 778 778 778 778 777 777 777 778 778 778 778 778 779 780
768 768 768 767 767 767 767 767 766 766 766 766 766 766 766 766 766 767 768 768 768 768 768 768 768 768 768 769 769 769 769 769 769 769 769 769 770 770 770 770 770 770 771 772 773 773 773 774 774 775 775 776 776 776 776 776 776 776 776 776 776 776 776 776 776 777 777 778 778
766 766 766 766 765 765 765 765 764 764 765 765 764 764 764 765 765 765 766 766 766 766 766 766 766 766 767 767 767 767 767 766 767 767 767 768 768 768 768 768 768 768 769 770 771 771 771 772 772 773 773 774 774 774 774 774 774 774 774 774 774 774 774 775 775 776 776 776 777